Location: Clanezzo
(45.7500°N, 9.6000°E)
Time: 09:47:59
(UTC+00:00)

USA 308 - Pass Details

Date: 29 September 2021
Orbit: 566 x 573 km, 54.0° (Epoch: 23 September)

Event Time Altitude Azimuth Distance (km) Brightness Sun altitude
Rises 19:27:56 0° 302° (WNW) 2,773 7.8 -25.1°
Reaches altitude 10° 19:30:13 10° 298° (WNW) 1,873 6.6 -25.5°
Enters shadow 19:33:48 52° 256° (WSW) 714 3.5 -26.0°
